Beaufort, NC

1:02 PM EST on February 23, 2017 (GMT -0500)
Piney Island

Weather History for KNBT - April, 2013

Change the Weather History Date:

Monday, April 22, 2013

  Actual Average (KMRH) Record (KMRH)
Temperature  
Mean Temperature 55 °F -  
Max Temperature 57 °F 72 °F 86 °F (1985)
Min Temperature 53 °F 53 °F 38 °F (1983)
Degree Days  
Heating Degree Days 10    
Growing Degree Days 5 (Base 50)    
Moisture  
Dew Point 51 °F    
Average Humidity 86    
Maximum Humidity 100    
Minimum Humidity 75    
Precipitation  
Precipitation 0.51 in - - ()
Sea Level Pressure  
Sea Level Pressure 30.23 in    
Wind  
Wind Speed 22 mph (NNE)    
Max Wind Speed 29 mph    
Max Gust Speed 39 mph    
Visibility 6 miles    
Events Rain    
Averages and records for this station are not official NWS values.
T = Trace of Precipitation, MM = Missing Value Source: NWS Daily Summary

Daily Weather History Graph

Daily Weather History Graph

Search for Another Location

Airport or City:

Trip Planner

Search our weather history database for the weather conditions in past years. The results will help you decide how hot, cold, wet, or windy it might be!

Date:

Astronomy

Apr. 22, 2013 Rise Set
Actual Time 6:24 AM EDT 7:44 PM EDT
Civil Twilight 5:58 AM EDT 8:10 PM EDT
Nautical Twilight 5:26 AM EDT 8:42 PM EDT
Astronomical Twilight 4:53 AM EDT 9:15 PM EDT
Moon 4:37 PM EDT (4/22) 4:10 AM EDT (4/22)
Length of Visible Light 14h 12m
Length of Day
13h 19m
Waxing Gibbous, 87% of the Moon is Illuminated
Apr 22
Waxing Gibbous
Apr 25
Full
May 2
Last Quarter
May 9
New
May 18
First Quarter

Hourly Weather History & Observations

Time (EDT) Temp. Dew Point Humidity Pressure Visibility Wind Dir Wind Speed Gust Speed Precip Events Conditions
12:56 AM 53.1 °F 46.0 °F 77% 30.40 in 10.0 mi NNE 20.7 mph 28.8 mph N/A   Scattered Clouds
1:19 AM 53.6 °F 46.4 °F 77% 30.39 in 10.0 mi NNE 18.4 mph 27.6 mph N/A   Mostly Cloudy
1:56 AM 53.1 °F 46.0 °F 77% 30.39 in 10.0 mi NNE 20.7 mph 26.5 mph N/A   Overcast
2:56 AM 53.1 °F 46.0 °F 77% 30.37 in 10.0 mi NNE 20.7 mph 28.8 mph N/A   Overcast
3:56 AM 54.0 °F 46.0 °F 75% 30.35 in 10.0 mi NNE 20.7 mph 26.5 mph N/A   Overcast
4:56 AM 53.1 °F 46.9 °F 80% 30.34 in 10.0 mi NNE 21.9 mph 29.9 mph N/A   Overcast
5:56 AM 54.0 °F 46.9 °F 77% 30.33 in 10.0 mi NNE 23.0 mph 29.9 mph N/A   Overcast
6:56 AM 55.0 °F 48.0 °F 77% 30.32 in 10.0 mi NNE 19.6 mph 31.1 mph N/A   Overcast
7:56 AM 55.0 °F 48.9 °F 80% 30.32 in 10.0 mi NNE 18.4 mph 28.8 mph N/A   Overcast
8:56 AM 55.9 °F 48.9 °F 77% 30.31 in 10.0 mi NNE 20.7 mph 29.9 mph N/A   Overcast
9:56 AM 55.9 °F 52.0 °F 87% 30.29 in 4.0 mi NNE 23.0 mph 29.9 mph 0.00 in Rain Light Rain
10:56 AM 57.0 °F 53.1 °F 87% 30.30 in 10.0 mi NNE 20.7 mph 29.9 mph 0.00 in   Overcast
11:56 AM 57.0 °F 54.0 °F 89% 30.28 in 10.0 mi North 20.7 mph 31.1 mph 0.01 in   Overcast
1:56 PM 57.9 °F 53.1 °F 84% 30.23 in 10.0 mi North 21.9 mph 35.7 mph N/A   Overcast
2:56 PM 57.0 °F 54.0 °F 89% 30.21 in 5.0 mi North 20.7 mph 36.8 mph 0.00 in Rain Light Rain
3:56 PM 57.0 °F 54.0 °F 89% 30.18 in 4.0 mi North 28.8 mph 35.7 mph 0.00 in Rain Light Rain
4:08 PM 55.4 °F 53.6 °F 94% 30.17 in 2.5 mi North 23.0 mph 35.7 mph 0.01 in   Overcast
4:21 PM 55.4 °F 55.4 °F 100% 30.17 in 3.0 mi North 23.0 mph 34.5 mph 0.03 in   Overcast
4:39 PM 55.4 °F 55.4 °F 100% 30.17 in 4.0 mi North 23.0 mph 39.1 mph 0.04 in   Overcast
4:48 PM 55.4 °F 55.4 °F 100% 30.17 in 2.5 mi North 24.2 mph 33.4 mph 0.05 in   Overcast
4:56 PM 55.9 °F 55.0 °F 97% 30.17 in 2.0 mi North 21.9 mph 35.7 mph 0.05 in   Overcast
5:08 PM 55.4 °F 55.4 °F 100% 30.15 in 4.0 mi North 26.5 mph 39.1 mph N/A   Overcast
5:56 PM 55.9 °F 55.0 °F 97% 30.17 in 4.0 mi North 24.2 mph 36.8 mph 0.02 in   Overcast
6:16 PM 55.4 °F - N/A% 30.14 in 1.8 mi North 24.2 mph 33.4 mph 0.05 in   Overcast
6:30 PM 55.4 °F - N/A% 30.14 in 0.8 mi North 24.2 mph 34.5 mph 0.22 in Rain Heavy Rain
6:43 PM 55.4 °F - N/A% 30.15 in 1.2 mi North 23.0 mph 35.7 mph 0.28 in   Overcast
6:56 PM 55.9 °F - N/A% 30.16 in 1.2 mi North 24.2 mph 35.7 mph 0.32 in Rain Heavy Rain
7:19 PM 55.4 °F - N/A% 30.15 in 2.0 mi North 20.7 mph 36.8 mph 0.07 in Rain Light Rain
7:29 PM 55.4 °F - N/A% 30.15 in 4.0 mi North 20.7 mph 31.1 mph 0.08 in Rain Rain
7:56 PM 55.9 °F - N/A% 30.17 in 4.0 mi North 20.7 mph 31.1 mph 0.09 in Rain Light Rain
8:56 PM 55.9 °F - N/A% 30.17 in 9.0 mi North 25.3 mph 34.5 mph 0.01 in   Overcast
9:56 PM 57.0 °F - N/A% 30.17 in 6.0 mi North 24.2 mph 33.4 mph 0.01 in Rain Light Rain
10:56 PM 57.0 °F - N/A% 30.17 in 10.0 mi North 23.0 mph 32.2 mph 0.00 in   Overcast
11:56 PM 57.0 °F - N/A% 30.16 in 6.0 mi North 21.9 mph 29.9 mph N/A   Haze